EN

Hourly Weather Kyundyade

Today, 25 July, Sunday

Time Temperature Precipitation Wind Pressure Humidity
00:00 +17°C° 0 mm 2 mps 746 mmHg 75%
01:00 +16°C° 0 mm 2 mps 747 mmHg 77%
02:00 +15°C° 0 mm 2 mps 747 mmHg 81%
03:00 +15°C° 0 mm 2 mps 747 mmHg 80%
04:00 +15°C° 0 mm 2 mps 747 mmHg 79%
05:00 +15°C° 0 mm 2 mps 748 mmHg 79%
06:00 +17°C° 0 mm 2 mps 748 mmHg 70%
07:00 +19°C° 0 mm 2 mps 748 mmHg 61%
08:00 +21°C° 0 mm 2 mps 748 mmHg 52%
09:00 +22°C° 0 mm 3 mps 748 mmHg 46%
10:00 +24°C° 0 mm 3 mps 748 mmHg 40%
11:00 +26°C° 0 mm 4 mps 748 mmHg 34%
12:00 +26°C° 0 mm 3 mps 748 mmHg 32%
13:00 +27°C° 0 mm 3 mps 748 mmHg 31%
14:00 +28°C° 0 mm 3 mps 747 mmHg 29%
15:00 +28°C° 0 mm 3 mps 747 mmHg 30%
16:00 +28°C° 0 mm 3 mps 747 mmHg 31%
17:00 +28°C° 0 mm 3 mps 747 mmHg 32%
18:00 +27°C° 0 mm 2 mps 747 mmHg 41%
19:00 +25°C° 0 mm 1 mps 747 mmHg 49%
20:00 +22°C° 0 mm 0 mps 747 mmHg 59%
21:00 +21°C° 0 mm 0 mps 747 mmHg 61%
22:00 +22°C° 0 mm 1 mps 747 mmHg 63%
23:00 +21°C° 0 mm 1 mps 746 mmHg 65%

Tomorrow, 26 July, Monday

Time Temperature Precipitation Wind Pressure Humidity
00:00 +20°C° 0 mm 1 mps 747 mmHg 67%
01:00 +19°C° 0 mm 2 mps 747 mmHg 69%
02:00 +18°C° 0 mm 2 mps 747 mmHg 71%
03:00 +19°C° 0 mm 2 mps 747 mmHg 71%
04:00 +20°C° 0 mm 1 mps 746 mmHg 72%
05:00 +20°C° 0 mm 1 mps 746 mmHg 73%
06:00 +21°C° 0 mm 2 mps 747 mmHg 65%
07:00 +25°C° 0 mm 2 mps 747 mmHg 57%
08:00 +27°C° 0 mm 2 mps 747 mmHg 49%
09:00 +29°C° 0 mm 2 mps 746 mmHg 43%
10:00 +31°C° 0 mm 2 mps 746 mmHg 38%
11:00 +33°C° 0 mm 3 mps 746 mmHg 33%
12:00 +34°C° 0 mm 3 mps 746 mmHg 31%
13:00 +35°C° 0 mm 2 mps 745 mmHg 30%
14:00 +35°C° 0 mm 2 mps 745 mmHg 28%
15:00 +35°C° 0 mm 2 mps 745 mmHg 30%
16:00 +35°C° 0 mm 2 mps 745 mmHg 32%
17:00 +34°C° 0 mm 2 mps 745 mmHg 35%
18:00 +31°C° 0 mm 1 mps 745 mmHg 40%
19:00 +29°C° 0 mm 1 mps 745 mmHg 46%
20:00 +28°C° 0 mm 1 mps 745 mmHg 52%
21:00 +26°C° 0 mm 1 mps 745 mmHg 54%
22:00 +25°C° 0 mm 1 mps 745 mmHg 55%
23:00 +24°C° 0 mm 1 mps 745 mmHg 57%

Day after tomorrow, 27 July, Tuesday

Time Temperature Precipitation Wind Pressure Humidity
00:00 +23°C° 0 mm 1 mps 745 mmHg 60%
01:00 +23°C° 0 mm 1 mps 745 mmHg 62%
02:00 +22°C° 0 mm 1 mps 745 mmHg 64%
03:00 +22°C° 0 mm 1 mps 745 mmHg 67%
04:00 +22°C° 0 mm 1 mps 745 mmHg 70%
05:00 +22°C° 0 mm 1 mps 746 mmHg 72%
06:00 +24°C° 0 mm 1 mps 746 mmHg 68%
07:00 +25°C° 0 mm 2 mps 746 mmHg 64%
08:00 +27°C° 0 mm 2 mps 746 mmHg 60%
09:00 +28°C° 0 mm 2 mps 746 mmHg 56%
10:00 +29°C° 0 mm 2 mps 746 mmHg 51%
11:00 +31°C° 0 mm 2 mps 746 mmHg 47%
12:00 +32°C° 0 mm 2 mps 746 mmHg 44%
13:00 +32°C° 0 mm 2 mps 745 mmHg 41%
14:00 +34°C° 0 mm 2 mps 745 mmHg 38%
15:00 +34°C° 0 mm 2 mps 745 mmHg 38%
16:00 +32°C° 0 mm 2 mps 745 mmHg 38%
17:00 +32°C° 0 mm 2 mps 745 mmHg 38%
18:00 +30°C° 0 mm 2 mps 745 mmHg 47%
19:00 +28°C° 0 mm 2 mps 745 mmHg 55%
20:00 +26°C° 0 mm 2 mps 745 mmHg 64%
21:00 +25°C° 0 mm 1 mps 745 mmHg 67%
22:00 +23°C° 0 mm 1 mps 745 mmHg 70%
23:00 +22°C° 0 mm 1 mps 745 mmHg 73%

28 July, Wednesday

Time Temperature Precipitation Wind Pressure Humidity
00:00 +21°C° 0 mm 1 mps 745 mmHg 75%
01:00 +19°C° 0 mm 0 mps 745 mmHg 77%
02:00 +18°C° 0 mm 0 mps 745 mmHg 79%
03:00 +18°C° 0 mm 0 mps 745 mmHg 79%
04:00 +19°C° 0 mm 0 mps 745 mmHg 78%
05:00 +19°C° 0 mm 0 mps 745 mmHg 78%
06:00 +23°C° 0 mm 1 mps 745 mmHg 71%
07:00 +25°C° 0 mm 1 mps 745 mmHg 64%
08:00 +26°C° 0 mm 1 mps 745 mmHg 56%
09:00 +28°C° 0 mm 1 mps 745 mmHg 52%
10:00 +29°C° 0 mm 1 mps 745 mmHg 48%
11:00 +30°C° 0 mm 1 mps 745 mmHg 44%
12:00 +30°C° 0 mm 2 mps 744 mmHg 44%
13:00 +31°C° 0 mm 2 mps 744 mmHg 44%
14:00 +31°C° 0 mm 3 mps 744 mmHg 44%
15:00 +29°C° 0.5 mm 3 mps 744 mmHg 53%
16:00 +27°C° 0.5 mm 2 mps 744 mmHg 63%
17:00 +25°C° 0.5 mm 2 mps 744 mmHg 73%
18:00 +25°C° 0 mm 2 mps 744 mmHg 73%
19:00 +24°C° 0 mm 2 mps 744 mmHg 72%
20:00 +24°C° 0 mm 1 mps 744 mmHg 72%
21:00 +21°C° 0 mm 2 mps 744 mmHg 68%
22:00 +19°C° 0 mm 2 mps 745 mmHg 65%
23:00 +17°C° 0 mm 2 mps 745 mmHg 61%

29 July, Thursday

Time Temperature Precipitation Wind Pressure Humidity
00:00 +16°C° 0 mm 2 mps 745 mmHg 64%
01:00 +15°C° 0 mm 2 mps 745 mmHg 66%
02:00 +14°C° 0 mm 2 mps 746 mmHg 68%
03:00 +14°C° 0 mm 2 mps 746 mmHg 68%
04:00 +14°C° 0 mm 2 mps 746 mmHg 68%
05:00 +14°C° 0 mm 2 mps 746 mmHg 68%
06:00 +16°C° 0 mm 2 mps 746 mmHg 61%
07:00 +18°C° 0 mm 2 mps 746 mmHg 53%
08:00 +20°C° 0 mm 3 mps 746 mmHg 46%
09:00 +22°C° 0 mm 3 mps 746 mmHg 40%
10:00 +24°C° 0 mm 3 mps 746 mmHg 35%
11:00 +26°C° 0 mm 3 mps 746 mmHg 30%
12:00 +26°C° 0 mm 3 mps 746 mmHg 27%
13:00 +27°C° 0 mm 3 mps 746 mmHg 25%
14:00 +27°C° 0 mm 3 mps 746 mmHg 23%
15:00 +27°C° 0 mm 3 mps 746 mmHg 24%
16:00 +27°C° 0 mm 3 mps 746 mmHg 25%
17:00 +27°C° 0 mm 3 mps 746 mmHg 26%
18:00 +25°C° 0 mm 2 mps 746 mmHg 35%
19:00 +23°C° 0 mm 2 mps 746 mmHg 45%
20:00 +21°C° 0 mm 1 mps 746 mmHg 54%
21:00 +19°C° 0 mm 1 mps 746 mmHg 56%
22:00 +15°C° 0 mm 0 mps 746 mmHg 58%
23:00 +14°C° 0 mm 0 mps 746 mmHg 60%

30 July, Friday

Time Temperature Precipitation Wind Pressure Humidity
00:00 +13°C° 0 mm 0 mps 746 mmHg 62%
01:00 +13°C° 0 mm 0 mps 746 mmHg 63%
02:00 +12°C° 0 mm 0 mps 746 mmHg 65%
03:00 +12°C° 0 mm 0 mps 746 mmHg 65%
04:00 +14°C° 0 mm 1 mps 746 mmHg 66%
05:00 +14°C° 0 mm 1 mps 746 mmHg 67%
06:00 +16°C° 0 mm 1 mps 746 mmHg 60%
07:00 +19°C° 0 mm 1 mps 746 mmHg 53%
08:00 +22°C° 0 mm 1 mps 746 mmHg 45%
09:00 +23°C° 0 mm 1 mps 746 mmHg 40%
10:00 +25°C° 0 mm 1 mps 746 mmHg 35%
11:00 +26°C° 0 mm 2 mps 746 mmHg 30%
12:00 +27°C° 0 mm 2 mps 746 mmHg 29%
13:00 +27°C° 0 mm 2 mps 745 mmHg 27%
14:00 +28°C° 0 mm 2 mps 745 mmHg 25%
15:00 +28°C° 0 mm 2 mps 745 mmHg 26%
16:00 +28°C° 0 mm 1 mps 745 mmHg 26%
17:00 +28°C° 0 mm 1 mps 745 mmHg 26%
18:00 +26°C° 0 mm 1 mps 745 mmHg 35%
19:00 +24°C° 0 mm 1 mps 745 mmHg 44%
20:00 +20°C° 0 mm 0 mps 745 mmHg 52%
21:00 +20°C° 0 mm 1 mps 744 mmHg 54%
22:00 +19°C° 0 mm 1 mps 744 mmHg 55%
23:00 +18°C° 0 mm 1 mps 744 mmHg 56%
Show more